Tracking 18957 objects as of 23-Jan-2018
HD Live streaming from Space Station
objects crossing your sky now

FENGYUN 1C DEB

Track FENGYUN 1C DEB now!
10-day predictions


NORAD ID: 30652
Int'l Code: 1999-025APJ
Perigee: 870.2 km
Apogee: 883.3 km
Inclination: 99.1 °
Period: 102.3 minutes
Semi major axis: 7247 km
RCS: 0.0389 m2 (small)
Launch date: May 10, 1999
Source: People's Republic of China (PRC)
Launch site: Taiyaun Space Center, China (TSC)

Note: This is SATELLITE DEBRIS
aabbcc
Your satellite tracking list
Your tracking list is empty




NASA's NSSDC Master Catalog

Two Line Element Set (TLE):
1 30652U 99025APJ 18022.70314295 +.00000181 +00000-0 +13547-3 0  9998
2 30652 099.1220 041.3284 0009091 054.3057 008.3708 14.07014912561733
Source of the keplerian elements: AFSPC